Time,TemperatureF,DewpointF,PressureIn,WindDirection,WindDirectionDegrees,WindSpeedMPH,WindSpeedGustMPH,Humidity,HourlyPrecipIn,Conditions,Clouds,dailyrainin,SoftwareType,DateUTC
2013-12-04 00:00:00,30.5,30.5,29.94,SSE,159,2.5,2.5,100,0.00,,CLR,0.00,VWS V14.01,2013-12-04 05:00:00,
2013-12-04 00:02:00,30.6,30.6,29.94,SSE,159,2.5,2.5,100,0.00,,CLR,0.00,VWS V14.01,2013-12-04 05:02:00,
2013-12-04 00:04:00,30.6,30.6,29.94,SSE,159,2.5,2.5,100,0.00,,CLR,0.00,VWS V14.01,2013-12-04 05:04:00,
2013-12-04 00:06:00,30.6,30.6,29.94,SSE,159,2.5,2.5,100,0.00,,CLR,0.00,VWS V14.01,2013-12-04 05:06:00,
2013-12-04 00:09:00,30.7,30.7,29.95,SSE,159,2.5,2.5,100,0.00,,CLR,0.00,VWS V14.01,2013-12-04 05:09:00,
2013-12-04 00:11:00,30.8,30.8,29.95,SSE,159,2.5,2.5,100,0.00,,CLR,0.00,VWS V14.01,2013-12-04 05:11:00,
2013-12-04 00:18:00,30.7,30.7,29.95,SSE,159,2.5,2.5,100,0.00,,CLR,0.00,VWS V14.01,2013-12-04 05:18:00,
2013-12-04 00:24:00,30.8,30.8,29.95,SSE,159,2.5,2.5,100,0.00,,CLR,0.00,VWS V14.01,2013-12-04 05:24:00,
2013-12-04 00:30:00,31.0,31.0,29.95,SSE,159,2.5,2.5,100,0.00,,CLR,0.00,VWS V14.01,2013-12-04 05:30:00,
2013-12-04 00:36:00,30.7,30.7,29.95,SSE,159,2.5,2.5,100,0.00,,CLR,0.00,VWS V14.01,2013-12-04 05:36:00,
2013-12-04 00:41:00,30.5,30.5,29.96,SSE,159,2.5,2.5,100,0.00,,CLR,0.00,VWS V14.01,2013-12-04 05:41:00,
2013-12-04 00:47:00,30.8,30.8,29.96,SSE,159,2.5,2.5,100,0.00,,CLR,0.00,VWS V14.01,2013-12-04 05:47:00,
2013-12-04 00:52:00,30.6,30.6,29.96,SSE,159,2.5,2.5,100,0.00,,CLR,0.00,VWS V14.01,2013-12-04 05:52:00,
2013-12-04 00:58:00,30.9,30.9,29.96,SSE,159,2.5,2.5,100,0.00,,CLR,0.00,VWS V14.01,2013-12-04 05:58:00,
2013-12-04 01:04:00,31.0,31.0,29.96,SSE,159,2.5,2.5,100,0.00,,CLR,0.00,VWS V14.01,2013-12-04 06:04:00,
2013-12-04 01:10:00,31.5,31.5,29.97,SSE,159,2.5,2.5,100,0.00,,CLR,0.00,VWS V14.01,2013-12-04 06:10:00,
2013-12-04 01:16:00,31.4,31.4,29.97,SSE,159,2.5,2.5,100,0.00,,CLR,0.00,VWS V14.01,2013-12-04 06:16:00,
2013-12-04 01:22:00,31.3,31.3,29.97,SSE,159,2.5,2.5,100,0.00,,CLR,0.00,VWS V14.01,2013-12-04 06:22:00,
2013-12-04 01:28:00,31.6,31.6,29.97,SSE,159,2.5,2.5,100,0.00,,CLR,0.00,VWS V14.01,2013-12-04 06:28:00,
2013-12-04 01:34:00,31.1,31.1,29.97,SSE,159,2.5,2.5,100,0.00,,CLR,0.00,VWS V14.01,2013-12-04 06:34:00,
2013-12-04 01:40:00,30.9,30.9,29.98,SSE,159,2.5,2.5,100,0.00,,CLR,0.00,VWS V14.01,2013-12-04 06:40:00,
2013-12-04 01:46:00,30.6,30.6,29.98,SSE,159,2.5,2.5,100,0.00,,CLR,0.00,VWS V14.01,2013-12-04 06:46:00,
2013-12-04 01:51:00,30.5,30.5,29.98,SSE,159,2.5,2.5,100,0.00,,CLR,0.00,VWS V14.01,2013-12-04 06:51:00,
2013-12-04 01:58:00,30.5,30.5,29.98,SSE,159,2.5,2.5,100,0.00,,CLR,0.00,VWS V14.01,2013-12-04 06:58:00,
2013-12-04 02:04:00,30.6,30.6,29.98,SSE,159,2.5,2.5,100,0.00,,CLR,0.00,VWS V14.01,2013-12-04 07:04:00,
2013-12-04 02:10:00,30.4,30.4,29.98,SSE,159,2.5,2.5,100,0.00,,CLR,0.00,VWS V14.01,2013-12-04 07:10:00,
2013-12-04 02:16:00,30.5,30.5,29.98,SSE,159,2.5,2.5,100,0.00,,CLR,0.00,VWS V14.01,2013-12-04 07:16:00,
2013-12-04 02:21:00,30.2,30.2,29.98,SSE,159,2.5,2.5,100,0.00,,CLR,0.00,VWS V14.01,2013-12-04 07:21:00,
2013-12-04 02:28:00,29.9,29.9,29.99,SSE,159,2.5,2.5,100,0.00,,CLR,0.00,VWS V14.01,2013-12-04 07:28:00,
2013-12-04 02:34:00,29.7,29.7,29.99,SSE,159,2.5,2.5,100,0.00,,CLR,0.00,VWS V14.01,2013-12-04 07:34:00,
2013-12-04 02:40:00,30.1,30.1,29.98,SSE,159,2.5,2.5,100,0.00,,CLR,0.00,VWS V14.01,2013-12-04 07:40:00,
2013-12-04 02:46:00,30.1,30.1,29.98,SSE,159,2.5,2.5,100,0.00,,CLR,0.00,VWS V14.01,2013-12-04 07:46:00,
2013-12-04 02:51:00,30.1,30.1,29.98,SSE,159,2.5,2.5,100,0.00,,CLR,0.00,VWS V14.01,2013-12-04 07:51:00,
2013-12-04 02:58:00,30.0,30.0,29.99,SSE,159,2.5,2.5,100,0.00,,CLR,0.00,VWS V14.01,2013-12-04 07:58:00,
2013-12-04 03:04:00,30.0,30.0,29.98,SSE,159,2.5,2.5,100,0.00,,CLR,0.00,VWS V14.01,2013-12-04 08:04:00,
2013-12-04 03:10:00,29.9,29.9,29.99,SSE,159,2.5,2.5,100,0.00,,CLR,0.00,VWS V14.01,2013-12-04 08:10:00,
2013-12-04 03:16:00,29.9,29.9,29.99,SSE,159,2.5,2.5,100,0.00,,CLR,0.00,VWS V14.01,2013-12-04 08:16:00,
2013-12-04 03:21:00,29.6,29.6,29.99,SSE,159,2.5,2.5,100,0.00,,CLR,0.00,VWS V14.01,2013-12-04 08:21:00,
2013-12-04 03:30:00,29.4,29.4,29.99,SSE,159,2.5,2.5,100,0.00,,CLR,0.00,VWS V14.01,2013-12-04 08:30:00,
2013-12-04 03:36:00,29.3,29.3,29.99,SSE,159,2.5,2.5,100,0.00,,CLR,0.00,VWS V14.01,2013-12-04 08:36:00,
2013-12-04 03:42:00,29.4,29.4,30.00,SSE,159,2.5,2.5,100,0.00,,CLR,0.00,VWS V14.01,2013-12-04 08:42:00,
2013-12-04 03:48:00,29.3,29.3,30.00,SSE,159,2.5,2.5,100,0.00,,CLR,0.00,VWS V14.01,2013-12-04 08:48:00,
2013-12-04 03:53:00,29.3,29.3,30.00,SSE,159,2.5,2.5,100,0.00,,CLR,0.00,VWS V14.01,2013-12-04 08:53:00,
2013-12-04 03:59:00,29.1,29.1,30.00,SSE,159,2.5,2.5,100,0.00,,CLR,0.00,VWS V14.01,2013-12-04 08:59:00,
2013-12-04 04:06:00,28.9,28.9,30.00,SSE,159,2.5,2.5,100,0.00,,CLR,0.00,VWS V14.01,2013-12-04 09:06:00,
2013-12-04 04:12:00,28.5,28.5,30.00,SSE,159,2.5,2.5,100,0.00,,CLR,0.00,VWS V14.01,2013-12-04 09:12:00,
2013-12-04 04:18:00,28.6,28.6,30.00,SSE,159,2.5,2.5,100,0.00,,CLR,0.00,VWS V14.01,2013-12-04 09:18:00,
2013-12-04 04:24:00,28.6,28.6,30.00,SSE,159,2.5,2.5,100,0.00,,CLR,0.00,VWS V14.01,2013-12-04 09:24:00,
2013-12-04 04:29:00,28.7,28.7,30.00,SSE,159,2.5,2.5,100,0.00,,CLR,0.00,VWS V14.01,2013-12-04 09:29:00,
2013-12-04 04:36:00,28.4,28.4,30.00,SSE,159,2.5,2.5,100,0.00,,CLR,0.00,VWS V14.01,2013-12-04 09:36:00,
2013-12-04 04:42:00,28.2,28.2,30.00,SSE,159,2.5,2.5,100,0.00,,CLR,0.00,VWS V14.01,2013-12-04 09:42:00,
2013-12-04 04:48:00,28.1,28.1,30.00,SSE,159,2.5,2.5,100,0.00,,CLR,0.00,VWS V14.01,2013-12-04 09:48:00,
2013-12-04 04:54:00,28.2,28.2,30.01,SSE,159,2.5,2.5,100,0.00,,CLR,0.00,VWS V14.01,2013-12-04 09:54:00,
2013-12-04 04:59:00,27.9,27.9,30.01,SSE,159,2.5,2.5,100,0.00,,CLR,0.00,VWS V14.01,2013-12-04 09:59:00,
2013-12-04 05:06:00,28.0,28.0,30.01,SSE,159,2.5,2.5,100,0.00,,CLR,0.00,VWS V14.01,2013-12-04 10:06:00,
2013-12-04 05:12:00,27.7,27.7,30.01,SSE,159,2.5,2.5,100,0.00,,CLR,0.00,VWS V14.01,2013-12-04 10:12:00,
2013-12-04 05:18:00,27.3,27.3,30.01,SSE,159,2.5,2.5,100,0.00,,CLR,0.00,VWS V14.01,2013-12-04 10:18:00,
2013-12-04 05:24:00,27.3,27.3,30.02,SSE,159,2.5,2.5,100,0.00,,CLR,0.00,VWS V14.01,2013-12-04 10:24:00,
2013-12-04 05:29:00,27.4,27.4,30.02,SSE,159,2.5,2.5,100,0.00,,CLR,0.00,VWS V14.01,2013-12-04 10:29:00,
2013-12-04 05:35:00,27.4,27.4,30.02,SSE,159,2.5,2.5,100,0.00,,CLR,0.00,VWS V14.01,2013-12-04 10:35:00,
2013-12-04 05:42:00,27.5,27.5,30.02,SSE,159,2.5,2.5,100,0.00,,CLR,0.00,VWS V14.01,2013-12-04 10:42:00,
2013-12-04 05:48:00,27.7,27.7,30.02,SSE,159,2.5,2.5,100,0.00,,CLR,0.00,VWS V14.01,2013-12-04 10:48:00,
2013-12-04 05:54:00,27.7,27.7,30.03,SSE,159,2.5,2.5,100,0.00,,CLR,0.00,VWS V14.01,2013-12-04 10:54:00,
2013-12-04 06:00:00,27.6,27.6,30.03,SSE,159,2.5,2.5,100,0.00,,CLR,0.00,VWS V14.01,2013-12-04 11:00:00,
2013-12-04 06:05:00,27.6,27.6,30.02,SSE,159,2.5,2.5,100,0.00,,CLR,0.00,VWS V14.01,2013-12-04 11:05:00,
2013-12-04 06:12:00,27.5,27.5,30.03,SSE,159,2.5,2.5,100,0.00,,CLR,0.00,VWS V14.01,2013-12-04 11:12:00,
2013-12-04 06:18:00,27.7,27.7,30.03,SSE,159,2.5,2.5,100,0.00,,CLR,0.00,VWS V14.01,2013-12-04 11:18:00,
2013-12-04 06:24:00,28.0,28.0,30.04,SSE,159,2.5,2.5,100,0.00,,CLR,0.00,VWS V14.01,2013-12-04 11:24:00,
2013-12-04 06:30:00,28.1,28.1,30.04,SSE,159,2.5,2.5,100,0.00,,CLR,0.00,VWS V14.01,2013-12-04 11:30:00,
2013-12-04 06:35:00,28.0,28.0,30.04,SSE,159,2.5,2.5,100,0.00,,CLR,0.00,VWS V14.01,2013-12-04 11:35:00,
2013-12-04 06:42:00,27.8,27.8,30.05,SSE,159,2.5,2.5,100,0.00,,CLR,0.00,VWS V14.01,2013-12-04 11:42:00,
2013-12-04 06:48:00,27.7,27.7,30.05,SSE,159,2.5,2.5,100,0.00,,CLR,0.00,VWS V14.01,2013-12-04 11:48:00,
2013-12-04 06:54:00,28.1,28.1,30.06,SSE,159,2.5,2.5,100,0.00,,CLR,0.00,VWS V14.01,2013-12-04 11:54:00,
2013-12-04 07:00:00,28.1,28.1,30.06,SSE,159,2.5,2.5,100,0.00,,CLR,0.00,VWS V14.01,2013-12-04 12:00:00,
2013-12-04 07:05:00,28.3,28.3,30.06,SSE,159,2.5,2.5,100,0.00,,,0.00,VWS V14.01,2013-12-04 12:05:00,
2013-12-04 07:11:00,28.4,28.4,30.07,SSE,159,2.5,2.5,100,0.00,,,0.00,VWS V14.01,2013-12-04 12:11:00,
2013-12-04 07:18:00,28.5,28.5,30.07,SSE,159,2.5,2.5,100,0.00,,,0.00,VWS V14.01,2013-12-04 12:18:00,
2013-12-04 07:24:00,28.7,28.7,30.07,SSE,159,2.5,2.5,100,0.00,,,0.00,VWS V14.01,2013-12-04 12:24:00,
2013-12-04 07:30:00,29.1,29.1,30.08,SSE,159,2.5,2.5,100,0.00,,,0.00,VWS V14.01,2013-12-04 12:30:00,
2013-12-04 07:35:00,29.1,29.1,30.08,SSE,159,2.5,2.5,100,0.00,,,0.00,VWS V14.01,2013-12-04 12:35:00,
2013-12-04 07:41:00,29.5,29.5,30.08,SSE,159,2.5,2.5,100,0.00,,,0.00,VWS V14.01,2013-12-04 12:41:00,
2013-12-04 07:48:00,29.6,29.6,30.08,SSE,159,2.5,2.5,100,0.00,,,0.00,VWS V14.01,2013-12-04 12:48:00,
2013-12-04 07:54:00,30.1,30.1,30.08,SSE,159,2.5,2.5,100,0.00,,,0.00,VWS V14.01,2013-12-04 12:54:00,
2013-12-04 07:59:00,30.1,30.1,30.09,SSE,159,2.5,2.5,100,0.00,,,0.00,VWS V14.01,2013-12-04 12:59:00,
2013-12-04 08:06:00,30.3,30.3,30.09,SSE,159,2.5,2.5,100,0.00,,BKN250,0.00,VWS V14.01,2013-12-04 13:06:00,
2013-12-04 08:11:00,30.4,30.4,30.09,SSE,159,2.5,2.5,100,0.00,,BKN250,0.00,VWS V14.01,2013-12-04 13:11:00,
2013-12-04 08:18:00,30.5,30.5,30.10,SSE,159,2.5,2.5,100,0.00,,BKN250,0.00,VWS V14.01,2013-12-04 13:18:00,
2013-12-04 08:24:00,31.3,31.3,30.10,SSE,159,2.5,2.5,100,0.00,,BKN250,0.00,VWS V14.01,2013-12-04 13:24:00,
2013-12-04 08:30:00,31.7,31.7,30.10,SSE,159,2.5,2.5,100,0.00,,BKN250,0.00,VWS V14.01,2013-12-04 13:30:00,
2013-12-04 08:36:00,32.1,32.1,30.10,SSE,159,2.5,2.5,100,0.00,,BKN250,0.00,VWS V14.01,2013-12-04 13:36:00,
2013-12-04 08:42:00,32.4,32.4,30.10,SSE,159,2.5,2.5,100,0.00,,BKN250,0.00,VWS V14.01,2013-12-04 13:42:00,
2013-12-04 08:48:00,32.7,32.7,30.10,SSE,159,2.5,2.5,100,0.00,,BKN250,0.00,VWS V14.01,2013-12-04 13:48:00,
2013-12-04 08:54:00,32.9,32.9,30.10,SSE,159,2.5,2.5,100,0.00,,BKN250,0.00,VWS V14.01,2013-12-04 13:54:00,
2013-12-04 09:00:00,33.2,33.2,30.10,SSE,159,2.5,2.5,100,0.00,,BKN250,0.00,VWS V14.01,2013-12-04 14:00:00,
2013-12-04 09:06:00,33.4,33.4,30.10,SSE,159,2.5,2.5,100,0.00,,BKN250,0.00,VWS V14.01,2013-12-04 14:06:00,
2013-12-04 09:12:00,33.9,33.9,30.10,SSE,159,2.5,2.5,100,0.00,,BKN250,0.00,VWS V14.01,2013-12-04 14:12:00,
2013-12-04 09:18:00,34.3,34.3,30.10,SSE,159,2.5,2.5,100,0.00,,BKN250,0.00,VWS V14.01,2013-12-04 14:18:00,
2013-12-04 09:24:00,34.8,34.8,30.11,SSE,159,2.5,2.5,100,0.00,,BKN250,0.00,VWS V14.01,2013-12-04 14:24:00,
2013-12-04 09:30:00,35.1,35.1,30.11,SSE,159,2.5,2.5,100,0.00,,BKN250,0.00,VWS V14.01,2013-12-04 14:30:00,
2013-12-04 09:36:00,35.5,35.5,30.11,SSE,159,2.5,2.5,100,0.00,,BKN250,0.00,VWS V14.01,2013-12-04 14:36:00,
2013-12-04 09:42:00,36.1,36.0,30.11,SSE,159,2.5,2.5,100,0.00,,BKN250,0.00,VWS V14.01,2013-12-04 14:42:00,
2013-12-04 09:48:00,36.3,35.9,30.11,SSE,159,2.5,2.5,99,0.00,,BKN250,0.00,VWS V14.01,2013-12-04 14:48:00,
2013-12-04 09:54:00,36.4,36.0,30.11,SSE,159,2.5,2.5,99,0.00,,BKN250,0.00,VWS V14.01,2013-12-04 14:54:00,
2013-12-04 10:00:00,36.3,35.3,30.11,SSE,159,2.5,2.5,96,0.00,,BKN250,0.00,VWS V14.01,2013-12-04 15:00:00,
2013-12-04 10:06:00,36.8,35.4,30.11,SSE,159,2.5,2.5,95,0.00,,BKN250,0.00,VWS V14.01,2013-12-04 15:06:00,
2013-12-04 10:12:00,37.4,35.5,30.10,SSE,159,2.5,2.5,93,0.00,,BKN250,0.00,VWS V14.01,2013-12-04 15:12:00,
2013-12-04 10:18:00,37.6,33.7,30.10,SSE,159,2.5,2.5,86,0.00,,BKN250,0.00,VWS V14.01,2013-12-04 15:18:00,
2013-12-04 10:24:00,37.5,33.3,30.10,SSE,159,2.5,2.5,85,0.00,,BKN250,0.00,VWS V14.01,2013-12-04 15:24:00,
2013-12-04 10:30:00,38.2,33.2,30.10,SSE,159,2.5,2.5,82,0.00,,BKN250,0.00,VWS V14.01,2013-12-04 15:30:00,
2013-12-04 10:36:00,38.0,32.5,30.10,SSE,159,2.5,2.5,80,0.00,,BKN250,0.00,VWS V14.01,2013-12-04 15:36:00,
2013-12-04 10:42:00,38.2,33.1,30.10,SSE,159,2.5,2.5,82,0.00,,BKN250,0.00,VWS V14.01,2013-12-04 15:42:00,
2013-12-04 10:48:00,38.6,33.1,30.10,SSE,159,2.5,2.5,80,0.00,,BKN250,0.00,VWS V14.01,2013-12-04 15:48:00,
2013-12-04 10:54:00,39.4,31.6,30.09,SSE,159,2.5,2.5,73,0.00,,BKN250,0.00,VWS V14.01,2013-12-04 15:54:00,
2013-12-04 11:00:00,39.9,32.2,30.09,SSE,159,2.5,2.5,74,0.00,,BKN250,0.00,VWS V14.01,2013-12-04 16:00:00,
2013-12-04 11:06:00,40.0,31.7,30.09,SSE,159,2.5,2.5,72,0.00,,OVC200,0.00,VWS V14.01,2013-12-04 16:06:00,
2013-12-04 11:12:00,39.9,30.4,30.09,SSE,159,2.5,2.5,68,0.00,,OVC200,0.00,VWS V14.01,2013-12-04 16:12:00,
2013-12-04 11:18:00,40.0,30.8,30.08,SSE,159,2.5,2.5,70,0.00,,OVC200,0.00,VWS V14.01,2013-12-04 16:18:00,
2013-12-04 11:24:00,40.0,31.3,30.08,SSE,159,2.5,2.5,71,0.00,,OVC200,0.00,VWS V14.01,2013-12-04 16:24:00,
2013-12-04 11:30:00,40.1,31.2,30.09,SSE,159,2.5,2.5,70,0.00,,OVC200,0.00,VWS V14.01,2013-12-04 16:30:00,
2013-12-04 11:36:00,40.3,29.7,30.08,SSE,159,2.5,2.5,66,0.00,,OVC200,0.00,VWS V14.01,2013-12-04 16:36:00,
2013-12-04 11:42:00,40.2,28.5,30.08,SSE,159,2.5,2.5,63,0.00,,OVC200,0.00,VWS V14.01,2013-12-04 16:42:00,
2013-12-04 11:48:00,39.8,29.0,30.08,SSE,159,2.5,2.5,65,0.00,,OVC200,0.00,VWS V14.01,2013-12-04 16:48:00,
2013-12-04 11:54:00,39.8,28.8,30.08,SSE,159,2.5,2.5,64,0.00,,OVC200,0.00,VWS V14.01,2013-12-04 16:54:00,
2013-12-04 12:00:00,40.2,29.6,30.09,SSE,159,2.5,2.5,66,0.00,,OVC200,0.00,VWS V14.01,2013-12-04 17:00:00,
2013-12-04 12:06:00,40.3,28.6,30.08,SSE,159,2.5,2.5,63,0.00,,OVC200,0.00,VWS V14.01,2013-12-04 17:06:00,
2013-12-04 12:12:00,40.6,27.4,30.08,SSE,159,2.5,2.5,59,0.00,,OVC200,0.00,VWS V14.01,2013-12-04 17:12:00,
2013-12-04 12:18:00,40.7,28.7,30.09,SSE,159,2.5,2.5,62,0.00,,OVC200,0.00,VWS V14.01,2013-12-04 17:18:00,
2013-12-04 12:24:00,41.0,28.6,30.09,SSE,159,2.5,2.5,61,0.00,,OVC200,0.00,VWS V14.01,2013-12-04 17:24:00,
2013-12-04 12:30:00,41.3,28.9,30.09,SSE,159,2.5,2.5,61,0.00,,OVC200,0.00,VWS V14.01,2013-12-04 17:30:00,
2013-12-04 12:36:00,41.5,27.4,30.09,SSE,159,2.5,2.5,57,0.00,,OVC200,0.00,VWS V14.01,2013-12-04 17:36:00,
2013-12-04 12:42:00,42.0,28.4,30.09,SSE,159,2.5,2.5,58,0.00,,OVC200,0.00,VWS V14.01,2013-12-04 17:42:00,
2013-12-04 12:48:00,42.5,27.7,30.09,SSE,159,2.5,2.5,56,0.00,,OVC200,0.00,VWS V14.01,2013-12-04 17:48:00,
2013-12-04 12:54:00,42.1,27.2,30.08,SSE,159,2.5,2.5,55,0.00,,OVC200,0.00,VWS V14.01,2013-12-04 17:54:00,
2013-12-04 13:00:00,42.1,28.0,30.09,SSE,159,2.5,2.5,57,0.00,,OVC200,0.00,VWS V14.01,2013-12-04 18:00:00,
2013-12-04 13:06:00,42.3,27.6,30.09,SSE,159,2.5,2.5,56,0.00,,BKN200,0.00,VWS V14.01,2013-12-04 18:06:00,
2013-12-04 13:12:00,42.9,27.5,30.08,SSE,159,2.5,2.5,54,0.00,,BKN200,0.00,VWS V14.01,2013-12-04 18:12:00,
2013-12-04 13:18:00,42.4,26.7,30.08,SSE,159,2.5,2.5,53,0.00,,BKN200,0.00,VWS V14.01,2013-12-04 18:18:00,
2013-12-04 13:24:00,42.6,27.6,30.08,SSE,159,2.5,2.5,55,0.00,,BKN200,0.00,VWS V14.01,2013-12-04 18:24:00,
2013-12-04 13:30:00,43.1,27.4,30.08,SSE,159,2.5,2.5,54,0.00,,BKN200,0.00,VWS V14.01,2013-12-04 18:30:00,
2013-12-04 13:36:00,43.8,26.9,30.09,SSE,159,2.5,2.5,51,0.00,,BKN200,0.00,VWS V14.01,2013-12-04 18:36:00,
2013-12-04 13:42:00,43.4,26.6,30.09,SSE,159,2.5,2.5,51,0.00,,BKN200,0.00,VWS V14.01,2013-12-04 18:42:00,
2013-12-04 13:48:00,43.5,27.1,30.09,SSE,159,2.5,2.5,52,0.00,,BKN200,0.00,VWS V14.01,2013-12-04 18:48:00,
2013-12-04 13:54:00,43.6,26.8,30.09,SSE,159,2.5,2.5,51,0.00,,BKN200,0.00,VWS V14.01,2013-12-04 18:54:00,
2013-12-04 14:00:00,44.3,28.9,30.09,SSE,159,2.5,2.5,54,0.00,,BKN200,0.00,VWS V14.01,2013-12-04 19:00:00,
2013-12-04 14:06:00,44.6,27.3,30.09,SSE,159,2.5,2.5,50,0.00,,BKN200,0.00,VWS V14.01,2013-12-04 19:06:00,
2013-12-04 14:12:00,45.1,27.2,30.09,SSE,159,2.5,2.5,49,0.00,,BKN200,0.00,VWS V14.01,2013-12-04 19:12:00,
2013-12-04 14:18:00,44.8,26.8,30.10,SSE,159,2.5,2.5,49,0.00,,BKN200,0.00,VWS V14.01,2013-12-04 19:18:00,
2013-12-04 14:24:00,44.4,27.5,30.10,SSE,159,2.5,2.5,51,0.00,,BKN200,0.00,VWS V14.01,2013-12-04 19:24:00,
2013-12-04 14:30:00,43.7,27.4,30.10,SSE,159,2.5,2.5,52,0.00,,BKN200,0.00,VWS V14.01,2013-12-04 19:30:00,
2013-12-04 14:36:00,43.6,26.7,30.10,SSE,159,2.5,2.5,51,0.00,,BKN200,0.00,VWS V14.01,2013-12-04 19:36:00,
2013-12-04 14:42:00,43.5,27.6,30.10,SSE,159,2.5,2.5,53,0.00,,BKN200,0.00,VWS V14.01,2013-12-04 19:42:00,
2013-12-04 14:48:00,43.7,27.1,30.10,SSE,159,2.5,2.5,52,0.00,,BKN200,0.00,VWS V14.01,2013-12-04 19:48:00,
2013-12-04 14:54:00,43.1,28.1,30.11,SSE,159,2.5,2.5,55,0.00,,BKN200,0.00,VWS V14.01,2013-12-04 19:54:00,
2013-12-04 15:00:00,42.8,28.8,30.10,SSE,159,2.5,2.5,57,0.00,,BKN200,0.00,VWS V14.01,2013-12-04 20:00:00,
2013-12-04 15:06:00,42.7,28.3,30.11,SSE,159,2.5,2.5,56,0.00,,BKN220,0.00,VWS V14.01,2013-12-04 20:06:00,
2013-12-04 15:12:00,42.6,27.9,30.11,SSE,159,2.5,2.5,56,0.00,,BKN220,0.00,VWS V14.01,2013-12-04 20:12:00,
2013-12-04 15:18:00,42.6,27.8,30.11,SSE,159,2.5,2.5,56,0.00,,BKN220,0.00,VWS V14.01,2013-12-04 20:18:00,
2013-12-04 15:24:00,42.5,28.0,30.11,SSE,159,2.5,2.5,56,0.00,,BKN220,0.00,VWS V14.01,2013-12-04 20:24:00,
2013-12-04 15:30:00,42.0,28.9,30.12,SSE,159,2.5,2.5,59,0.00,,BKN220,0.00,VWS V14.01,2013-12-04 20:30:00,
2013-12-04 15:36:00,41.7,27.5,30.12,SSE,159,2.5,2.5,57,0.00,,BKN220,0.00,VWS V14.01,2013-12-04 20:36:00,
2013-12-04 15:42:00,41.6,27.3,30.13,SSE,159,2.5,2.5,56,0.00,,BKN220,0.00,VWS V14.01,2013-12-04 20:42:00,
2013-12-04 15:48:00,41.5,27.8,30.13,SSE,159,2.5,2.5,58,0.00,,BKN220,0.00,VWS V14.01,2013-12-04 20:48:00,
2013-12-04 15:54:00,41.0,28.8,30.13,SSE,159,2.5,2.5,62,0.00,,BKN220,0.00,VWS V14.01,2013-12-04 20:54:00,
2013-12-04 16:00:00,40.4,29.2,30.13,SSE,159,2.5,2.5,64,0.00,,BKN220,0.00,VWS V14.01,2013-12-04 21:00:00,
2013-12-04 16:06:00,40.0,29.8,30.13,SSE,159,2.5,2.5,66,0.00,,BKN220,0.00,VWS V14.01,2013-12-04 21:06:00,
2013-12-04 16:12:00,39.7,29.9,30.13,SSE,159,2.5,2.5,68,0.00,,BKN220,0.00,VWS V14.01,2013-12-04 21:12:00,
2013-12-04 16:18:00,39.7,31.1,30.13,SSE,159,2.5,2.5,71,0.00,,BKN220,0.00,VWS V14.01,2013-12-04 21:18:00,
2013-12-04 16:24:00,39.5,31.3,30.13,SSE,159,2.5,2.5,72,0.00,,BKN220,0.00,VWS V14.01,2013-12-04 21:24:00,
2013-12-04 16:30:00,39.0,31.8,30.13,SSE,159,2.5,2.5,75,0.00,,BKN220,0.00,VWS V14.01,2013-12-04 21:30:00,
2013-12-04 16:36:00,38.3,31.6,30.13,SSE,159,2.5,2.5,77,0.00,,BKN220,0.00,VWS V14.01,2013-12-04 21:36:00,
2013-12-04 16:42:00,38.1,32.4,30.13,SSE,159,2.5,2.5,80,0.00,,BKN220,0.00,VWS V14.01,2013-12-04 21:42:00,
2013-12-04 16:48:00,37.5,33.1,30.13,SSE,159,2.5,2.5,84,0.00,,BKN220,0.00,VWS V14.01,2013-12-04 21:48:00,
2013-12-04 16:54:00,37.2,33.1,30.13,SSE,159,2.5,2.5,85,0.00,,BKN220,0.00,VWS V14.01,2013-12-04 21:54:00,
2013-12-04 17:00:00,37.0,34.3,30.13,SSE,159,2.5,2.5,90,0.00,,BKN220,0.00,VWS V14.01,2013-12-04 22:00:00,
2013-12-04 17:06:00,36.6,33.5,30.14,SSE,159,2.5,2.5,88,0.00,,BKN220,0.00,VWS V14.01,2013-12-04 22:06:00,
2013-12-04 17:12:00,36.1,33.8,30.14,SSE,159,2.5,2.5,91,0.00,,BKN220,0.00,VWS V14.01,2013-12-04 22:12:00,
2013-12-04 17:18:00,35.7,34.0,30.14,SSE,159,2.5,2.5,94,0.00,,BKN220,0.00,VWS V14.01,2013-12-04 22:18:00,
2013-12-04 17:24:00,35.4,34.2,30.14,SSE,159,2.5,2.5,95,0.00,,BKN220,0.00,VWS V14.01,2013-12-04 22:24:00,
2013-12-04 17:30:00,35.1,34.1,30.15,SSE,159,2.5,2.5,96,0.00,,BKN220,0.00,VWS V14.01,2013-12-04 22:30:00,
2013-12-04 17:36:00,35.0,34.1,30.15,SSE,159,2.5,2.5,96,0.00,,BKN220,0.00,VWS V14.01,2013-12-04 22:36:00,
2013-12-04 17:42:00,34.7,33.8,30.15,SSE,159,2.5,2.5,96,0.00,,BKN220,0.00,VWS V14.01,2013-12-04 22:42:00,
2013-12-04 17:48:00,34.8,34.0,30.15,SSE,159,2.5,2.5,97,0.00,,BKN220,0.00,VWS V14.01,2013-12-04 22:48:00,
2013-12-04 17:54:00,34.6,33.8,30.16,SSE,159,2.5,2.5,97,0.00,,BKN220,0.00,VWS V14.01,2013-12-04 22:54:00,
2013-12-04 18:00:00,34.5,33.8,30.16,SSE,159,2.5,2.5,97,0.00,,BKN220,0.00,VWS V14.01,2013-12-04 23:00:00,
2013-12-04 18:06:00,34.3,33.4,30.16,SSE,159,2.5,2.5,96,0.00,,BKN240,0.00,VWS V14.01,2013-12-04 23:06:00,
2013-12-04 18:12:00,34.2,33.4,30.17,SSE,159,2.5,2.5,97,0.00,,BKN240,0.00,VWS V14.01,2013-12-04 23:12:00,
2013-12-04 18:18:00,34.2,33.4,30.17,SSE,159,2.5,2.5,97,0.00,,BKN240,0.00,VWS V14.01,2013-12-04 23:18:00,
2013-12-04 18:24:00,34.3,33.7,30.18,SSE,159,2.5,2.5,98,0.00,,BKN240,0.00,VWS V14.01,2013-12-04 23:24:00,
2013-12-04 18:30:00,34.0,33.6,30.18,SSE,159,2.5,2.5,98,0.00,,BKN240,0.00,VWS V14.01,2013-12-04 23:30:00,
2013-12-04 18:36:00,33.4,33.0,30.18,SSE,159,2.5,2.5,99,0.00,,BKN240,0.00,VWS V14.01,2013-12-04 23:36:00,
2013-12-04 18:42:00,33.2,33.1,30.18,SSE,159,2.5,2.5,100,0.00,,BKN240,0.00,VWS V14.01,2013-12-04 23:42:00,
2013-12-04 18:48:00,33.1,33.1,30.18,SSE,159,2.5,2.5,100,0.00,,BKN240,0.00,VWS V14.01,2013-12-04 23:48:00,
2013-12-04 18:54:00,32.8,32.8,30.18,SSE,159,2.5,2.5,100,0.00,,BKN240,0.00,VWS V14.01,2013-12-04 23:54:00,
2013-12-04 19:00:00,32.7,32.7,30.18,SSE,159,2.5,2.5,100,0.00,,BKN240,0.00,VWS V14.01,2013-12-05 00:00:00,
2013-12-04 19:06:00,32.6,32.6,30.18,SSE,159,2.5,2.5,100,0.00,,SCT240,0.00,VWS V14.01,2013-12-05 00:06:00,
2013-12-04 19:12:00,32.6,32.6,30.18,SSE,159,2.5,2.5,100,0.00,,SCT240,0.00,VWS V14.01,2013-12-05 00:12:00,
2013-12-04 19:18:00,32.6,32.6,30.18,SSE,159,2.5,2.5,100,0.00,,SCT240,0.00,VWS V14.01,2013-12-05 00:18:00,
2013-12-04 19:24:00,32.4,32.4,30.19,SSE,159,2.5,2.5,100,0.00,,SCT240,0.00,VWS V14.01,2013-12-05 00:24:00,
2013-12-04 19:30:00,32.0,32.0,30.18,SSE,159,2.5,2.5,100,0.00,,SCT240,0.00,VWS V14.01,2013-12-05 00:30:00,
2013-12-04 19:36:00,31.6,31.6,30.18,SSE,159,2.5,2.5,100,0.00,,SCT240,0.00,VWS V14.01,2013-12-05 00:36:00,
2013-12-04 19:42:00,31.1,31.1,30.18,SSE,159,2.5,2.5,100,0.00,,SCT240,0.00,VWS V14.01,2013-12-05 00:42:00,
2013-12-04 19:48:00,31.4,31.4,30.18,SSE,159,2.5,2.5,100,0.00,,SCT240,0.00,VWS V14.01,2013-12-05 00:48:00,
2013-12-04 19:54:00,31.2,31.2,30.18,SSE,159,2.5,2.5,100,0.00,,SCT240,0.00,VWS V14.01,2013-12-05 00:54:00,
2013-12-04 20:00:00,30.9,30.9,30.18,SSE,159,2.5,2.5,100,0.00,,SCT240,0.00,VWS V14.01,2013-12-05 01:00:00,
2013-12-04 20:06:00,31.0,31.0,30.18,SSE,159,2.5,2.5,100,0.00,,FEW240,0.00,VWS V14.01,2013-12-05 01:06:00,
2013-12-04 20:12:00,31.2,31.2,30.18,SSE,159,2.5,2.5,100,0.00,,FEW240,0.00,VWS V14.01,2013-12-05 01:12:00,
2013-12-04 20:18:00,31.1,31.1,30.18,SSE,159,2.5,2.5,100,0.00,,FEW240,0.00,VWS V14.01,2013-12-05 01:18:00,
2013-12-04 20:24:00,30.6,30.6,30.18,SSE,159,2.5,2.5,100,0.00,,FEW240,0.00,VWS V14.01,2013-12-05 01:24:00,
2013-12-04 20:30:00,30.5,30.5,30.18,SSE,159,2.5,2.5,100,0.00,,FEW240,0.00,VWS V14.01,2013-12-05 01:30:00,
2013-12-04 20:36:00,30.1,30.1,30.18,SSE,159,2.5,2.5,100,0.00,,FEW240,0.00,VWS V14.01,2013-12-05 01:36:00,
2013-12-04 20:42:00,30.0,30.0,30.18,SSE,159,2.5,2.5,100,0.00,,FEW240,0.00,VWS V14.01,2013-12-05 01:42:00,
2013-12-04 20:48:00,30.1,30.1,30.19,SSE,159,2.5,2.5,100,0.00,,FEW240,0.00,VWS V14.01,2013-12-05 01:48:00,
2013-12-04 20:54:00,29.6,29.6,30.19,SSE,159,2.5,2.5,100,0.00,,FEW240,0.00,VWS V14.01,2013-12-05 01:54:00,
2013-12-04 21:00:00,29.5,29.5,30.19,SSE,159,2.5,2.5,100,0.00,,FEW240,0.00,VWS V14.01,2013-12-05 02:00:00,
2013-12-04 21:06:00,29.2,29.2,30.19,SSE,159,2.5,2.5,100,0.00,,FEW240,0.00,VWS V14.01,2013-12-05 02:06:00,
2013-12-04 21:12:00,29.0,29.0,30.19,SSE,159,2.5,2.5,100,0.00,,FEW240,0.00,VWS V14.01,2013-12-05 02:12:00,
2013-12-04 21:18:00,29.2,29.2,30.19,SSE,159,2.5,2.5,100,0.00,,FEW240,0.00,VWS V14.01,2013-12-05 02:18:00,
2013-12-04 21:24:00,28.5,28.5,30.19,SSE,159,2.5,2.5,100,0.00,,FEW240,0.00,VWS V14.01,2013-12-05 02:24:00,
2013-12-04 21:30:00,28.6,28.6,30.19,SSE,159,2.5,2.5,100,0.00,,FEW240,0.00,VWS V14.01,2013-12-05 02:30:00,
2013-12-04 21:36:00,28.6,28.6,30.20,SSE,159,2.5,2.5,100,0.00,,FEW240,0.00,VWS V14.01,2013-12-05 02:36:00,
2013-12-04 21:42:00,28.8,28.8,30.19,SSE,159,2.5,2.5,100,0.00,,FEW240,0.00,VWS V14.01,2013-12-05 02:42:00,
2013-12-04 21:48:00,28.9,28.9,30.20,SSE,159,2.5,2.5,100,0.00,,FEW240,0.00,VWS V14.01,2013-12-05 02:48:00,
2013-12-04 21:54:00,28.7,28.7,30.20,SSE,159,2.5,2.5,100,0.00,,FEW240,0.00,VWS V14.01,2013-12-05 02:54:00,
2013-12-04 22:00:00,28.6,28.6,30.20,SSE,159,2.5,2.5,100,0.00,,FEW240,0.00,VWS V14.01,2013-12-05 03:00:00,
2013-12-04 22:06:00,28.3,28.3,30.20,SSE,159,2.5,2.5,100,0.00,,FEW240,0.00,VWS V14.01,2013-12-05 03:06:00,
2013-12-04 22:12:00,28.2,28.2,30.20,SSE,159,2.5,2.5,100,0.00,,FEW240,0.00,VWS V14.01,2013-12-05 03:12:00,
2013-12-04 22:18:00,28.5,28.5,30.20,SSE,159,2.5,2.5,100,0.00,,FEW240,0.00,VWS V14.01,2013-12-05 03:18:00,
2013-12-04 22:24:00,28.2,28.2,30.20,SSE,159,2.5,2.5,100,0.00,,FEW240,0.00,VWS V14.01,2013-12-05 03:24:00,
2013-12-04 22:30:00,28.5,28.5,30.19,SSE,159,2.5,2.5,100,0.00,,FEW240,0.00,VWS V14.01,2013-12-05 03:30:00,
2013-12-04 22:36:00,28.1,28.1,30.19,SSE,159,2.5,2.5,100,0.00,,FEW240,0.00,VWS V14.01,2013-12-05 03:36:00,
2013-12-04 22:42:00,28.1,28.1,30.19,SSE,159,2.5,2.5,100,0.00,,FEW240,0.00,VWS V14.01,2013-12-05 03:42:00,
2013-12-04 22:48:00,28.1,28.1,30.19,SSE,159,2.5,2.5,100,0.00,,FEW240,0.00,VWS V14.01,2013-12-05 03:48:00,
2013-12-04 22:54:00,28.4,28.4,30.19,SSE,159,2.5,2.5,100,0.00,,FEW240,0.00,VWS V14.01,2013-12-05 03:54:00,
2013-12-04 23:00:00,28.2,28.2,30.20,SSE,159,2.5,2.5,100,0.00,,FEW240,0.00,VWS V14.01,2013-12-05 04:00:00,
2013-12-04 23:06:00,28.3,28.3,30.20,SSE,159,2.5,2.5,100,0.00,,CLR,0.00,VWS V14.01,2013-12-05 04:06:00,
2013-12-04 23:12:00,28.4,28.4,30.20,SSE,159,2.5,2.5,100,0.00,,CLR,0.00,VWS V14.01,2013-12-05 04:12:00,
2013-12-04 23:18:00,27.9,27.9,30.20,SSE,159,2.5,2.5,100,0.00,,CLR,0.00,VWS V14.01,2013-12-05 04:18:00,
2013-12-04 23:24:00,27.9,27.9,30.20,SSE,159,2.5,2.5,100,0.00,,CLR,0.00,VWS V14.01,2013-12-05 04:24:00,
2013-12-04 23:30:00,27.4,27.4,30.20,SSE,159,2.5,2.5,100,0.00,,CLR,0.00,VWS V14.01,2013-12-05 04:30:00,
2013-12-04 23:36:00,27.4,27.4,30.20,SSE,159,2.5,2.5,100,0.00,,CLR,0.00,VWS V14.01,2013-12-05 04:36:00,
2013-12-04 23:42:00,27.6,27.6,30.20,SSE,159,2.5,2.5,100,0.00,,CLR,0.00,VWS V14.01,2013-12-05 04:42:00,
2013-12-04 23:48:00,27.7,27.7,30.20,SSE,159,2.5,2.5,100,0.00,,CLR,0.00,VWS V14.01,2013-12-05 04:48:00,
2013-12-04 23:54:00,28.0,28.0,30.21,SSE,159,2.5,2.5,100,0.00,,CLR,0.00,VWS V14.01,2013-12-05 04:54:00,